896  
ASUS44 KBMX 160010  
RWRAL  
 
ALABAMA REGIONAL WEATHER ROUNDUP  
NATIONAL WEATHER SERVICE BIRMINGHAM AL  
700 PM CDT SUN SEP 15 2019  
 
NOTE: "FAIR" INDICATES FEW OR NO CLOUDS BELOW 12,000 FEET  
WITH NO SIGNIFICANT WEATHER AND/OR S TO VISIBILITY
.  
 
THE REMARK "TC" DENOTES TEMPERATURE IN DEGREES CELSIUS.  
 
ALZ001>011-014-016>018-020-160100-  
NORTH ALABAMA  
 
CITY SKY/WX TMP DP RH WIND PRES REMARKS
 
MUSCLE SHOALS FAIR 87 69 54 CALM 30.04S HX 91  
6HR MIN TEMP: 86; 6HR MAX TEMP: 97;  
 
HUNTSVILLE FAIR 87 63 44 N5 30.04S  
6HR MIN TEMP: 87; 6HR MAX TEMP: 96;  
 
DECATUR FAIR 84 66 54 CALM 30.05R  
6HR MIN TEMP: 84; 6HR MAX TEMP: 96;  
 
HALEYVILLE FAIR 80 72 76 CALM 30.09S  
6HR MIN TEMP: 80; 6HR MAX TEMP: 93;  
 
GADSDEN FAIR 86 68 54 CALM 30.05S  
6HR MIN TEMP: 84; 6HR MAX TEMP: 93;  
 

 
 
ALZ012-013-022-023-030>036-040>044-160100-  
WEST CENTRAL ALABAMA  
 
CITY SKY/WX TMP DP RH WIND PRES REMARKS
 
TUSCALOOSA FAIR 86 73 65 NE3 30.01S HX 93  
6HR MIN TEMP: 86; 6HR MAX TEMP: 97;  
 
DEMOPOLIS FAIR 85 71 62 CALM 30.00S HX 90  
6HR MIN TEMP: 85; 6HR MAX TEMP: 93;  
 

 
 
ALZ015-024>026-033>036-041>044-160100-  
CENTRAL ALABAMA  
 
CITY SKY/WX TMP DP RH WIND PRES REMARKS
 
BIRMINGHAM FAIR 89 64 43 NE5 30.06S HX 90  
6HR MIN TEMP: 89; 6HR MAX TEMP: 93;  
 
MONTGOMERY FAIR 89 66 46 NE8 30.00S HX 91  
6HR MIN TEMP: 89; 6HR MAX TEMP: 96;  
 
SHELBY CO ARPT FAIR 88 66 48 CALM 30.03S HX 90  
6HR MIN TEMP: 88; 6HR MAX TEMP: 95;  
 
MAXWELL AFB FAIR 90 66 45 NE6 29.99S HX 92  
6HR MIN TEMP: 90; 6HR MAX TEMP: 96;  
 
GREENVILLE FAIR 87 63 44 NE5 30.01R  
6HR MIN TEMP: 87; 6HR MAX TEMP: 95;  
 
SELMA N/A 90 64 43 E5 29.99S HX 91  
PRATTVILLE FAIR 88 67 49 E3 30.00S HX 91  
6HR MIN TEMP: 88; 6HR MAX TEMP: 95;  
 
BESSEMER FAIR 86 68 54 E3 30.05S  
6HR MIN TEMP: 86; 6HR MAX TEMP: 93;  
 
TALLADEGA FAIR 86 70 58 CALM N/A HX 91  
6HR MIN TEMP: 86; 6HR MAX TEMP: 94;  
 
PELL CITY CLEAR 82 75 78 CALM 30.04S  
MARION FAIR 87 70 55 CALM 30.00S HX 92  
6HR MIN TEMP: 87; 6HR MAX TEMP: 98;  
 
SYLACAUGA FAIR 87 63 44 CALM 30.04S  
6HR MIN TEMP: 87; 6HR MAX TEMP: 93;  
 

 
 
ALZ019-021-028-029-037-038-045>048-160100-  
EAST CENTRAL ALABAMA  
 
CITY SKY/WX TMP DP RH WIND PRES REMARKS
 
ANNISTON FAIR 84 68 58 CALM 30.04S  
6HR MIN TEMP: 84; 6HR MAX TEMP: 93;  
 
ALEXANDER CITY FAIR 83 72 68 CALM 30.05R  
6HR MIN TEMP: 83; 6HR MAX TEMP: 91;  
 
AUBURN FAIR N/A N/A N/A NE5 30.05S  

 
 
ALZ051>064-160100-  
SOUTHWEST ALABAMA  
 
CITY SKY/WX TMP DP RH WIND PRES REMARKS
 
MOBILE FAIR 86 71 60 NE3 29.99S HX 91  
6HR MIN TEMP: 86; 6HR MAX TEMP: 95;  
 
BROOKLEY FIELD FAIR 89 71 55 NE6 29.99S HX 95  
6HR MIN TEMP: 89; 6HR MAX TEMP: 94;  
 
EVERGREEN FAIR 83 71 67 CALM 30.00S  
6HR MIN TEMP: 83; 6HR MAX TEMP: 95;  
 

 
 
ALZ049-050-065>069-160100-  
SOUTHEAST ALABAMA  
 
CITY SKY/WX TMP DP RH WIND PRES REMARKS
 
DOTHAN FAIR 86 69 56 CALM 30.03S HX 90  
6HR MIN TEMP: 86; 6HR MAX TEMP: 95;  
 
OZARK FAIR 86 67 51 E3 30.00R  
6HR MIN TEMP: 86; 6HR MAX TEMP: 93;  
 
TROY FAIR 84 71 65 CALM 30.01S  
6HR MIN TEMP: 83; 6HR MAX TEMP: 94;  
 
EUFAULA NOT AVBL  

 
 
 
CLICK HERE TO GO TO PREVIOUS BULLETINS.

The Nexlab AL Page Main Text Page